| time (UTC) | temp F | wind direction | speed MPH | gust MPH | rain 1hr in | rain 24hr in | rain mn in | humidity % | barometer mb |
| 20260503072003 | 43 | 67 | 4.0 | 8.0 | 0.00 | 0.00 | 0.00 | 71 | 1011.4 |
| 20260503071003 | 43 | 64 | 4.0 | 9.0 | 0.00 | 0.00 | 0.00 | 71 | 1011.3 |
| 20260503055003 | 42 | 83 | 2.0 | 9.0 | 0.00 | 0.00 | 0.00 | 73 | 1010.7 |
| 20260503054003 | 42 | 75 | 5.0 | 11.0 | 0.00 | 0.00 | 0.00 | 73 | 1010.7 |
| 20260503053003 | 43 | 56 | 4.0 | 9.0 | 0.00 | 0.00 | 0.00 | 73 | 1010.5 |
| 20260503052003 | 43 | 84 | 5.0 | 11.0 | 0.00 | 0.00 | 0.00 | 73 | 1010.7 |
| 20260503051003 | 42 | 74 | 4.0 | 8.0 | 0.00 | 0.00 | 0.00 | 73 | 1010.6 |
| 20260503050003 | 43 | 61 | 4.0 | 9.0 | 0.00 | 0.00 | 0.00 | 73 | 1010.5 |
| 20260503045003 | 43 | 72 | 4.0 | 9.0 | 0.00 | 0.00 | 0.00 | 73 | 1010.7 |
| 20260503044003 | 43 | 74 | 3.0 | 11.0 | 0.00 | 0.00 | 0.00 | 73 | 1010.5 |
| 20260503043003 | 43 | 51 | 4.0 | 9.0 | 0.00 | 0.00 | 0.00 | 73 | 1010.4 |
| 20260503042003 | 43 | 60 | 3.0 | 8.0 | 0.00 | 0.00 | 0.00 | 74 | 1010.4 |
| 20260503041004 | 43 | 61 | 4.0 | 11.0 | 0.00 | 0.00 | 0.00 | 73 | 1010.5 |
| 20260503040003 | 43 | 78 | 4.0 | 11.0 | 0.00 | 0.00 | 0.00 | 74 | 1010.4 |
| 20260503035003 | 43 | 74 | 5.0 | 11.0 | 0.00 | 0.00 | 0.00 | 74 | 1010.4 |
| 20260503034003 | 43 | 73 | 4.0 | 11.0 | 0.00 | 0.00 | 0.00 | 74 | 1010.3 |
| 20260503033003 | 43 | 70 | 5.0 | 11.0 | 0.00 | 0.00 | 0.00 | 75 | 1010.0 |
| 20260503032003 | 43 | 77 | 4.0 | 11.0 | 0.00 | 0.00 | 0.00 | 75 | 1010.1 |
| 20260503031003 | 43 | 72 | 5.0 | 11.0 | 0.00 | 0.00 | 0.00 | 75 | 1010.0 |
| 20260503030003 | 43 | 70 | 5.0 | 11.0 | 0.00 | 0.00 | 0.00 | 76 | 1010.0 |
| 20260503025003 | 43 | 65 | 4.0 | 9.0 | 0.00 | 0.00 | 0.00 | 76 | 1009.8 |
| 20260503024003 | 43 | 69 | 6.0 | 13.0 | 0.00 | 0.00 | 0.00 | 76 | 1009.9 |
| 20260503023003 | 43 | 78 | 4.0 | 14.0 | 0.00 | 0.00 | 0.00 | 77 | 1009.8 |
| 20260503022003 | 43 | 69 | 4.0 | 13.0 | 0.00 | 0.00 | 0.00 | 78 | 1009.8 |
| 20260503021003 | 43 | 84 | 5.0 | 13.0 | 0.00 | 0.00 | 0.00 | 79 | 1009.6 |
| 20260503020004 | 44 | 65 | 4.0 | 13.0 | 0.00 | 0.00 | 0.00 | 79 | 1009.7 |
| 20260503015003 | 44 | 77 | 4.0 | 13.0 | 0.00 | 0.00 | 0.00 | 80 | 1009.6 |
| 20260503014003 | 44 | 68 | 5.0 | 11.0 | 0.00 | 0.00 | 0.00 | 81 | 1009.7 |
| 20260503012003 | 44 | 69 | 3.0 | 11.0 | 0.00 | 0.00 | 0.00 | 83 | 1009.6 |
| 20260503011004 | 44 | 73 | 3.0 | 9.0 | 0.00 | 0.00 | 0.00 | 85 | 1009.2 |
| 20260503010003 | 44 | 71 | 4.0 | 8.0 | 0.00 | 0.00 | 0.00 | 88 | 1009.5 |
| 20260503005003 | 44 | 75 | 3.0 | 9.0 | 0.00 | 0.00 | 0.00 | 90 | 1009.8 |
| 20260503004003 | 44 | 80 | 4.0 | 7.0 | 0.00 | 0.00 | 0.00 | 93 | 1009.6 |
| 20260503003003 | 45 | 83 | 2.0 | 7.0 | 0.00 | 0.00 | 0.00 | 95 | 1009.3 |
| 20260503002003 | 44 | 75 | 2.0 | 7.0 | 0.00 | 0.00 | 0.00 | 97 | 1009.2 |
| 20260503001003 | 43 | 0 | 0.0 | 2.0 | 0.00 | 0.00 | 0.00 | 99 | 1009.0 |
| 20260503000003 | 43 | 0 | 0.0 | 2.0 | 0.00 | 0.00 | 0.00 | 99 | 1009.2 |
| 20260502235003 | 41 | 0 | 0.0 | 0.0 | 0.00 | 0.00 | 0.00 | 98 | 1009.0 |
| 20260502234003 | 42 | 0 | 0.0 | 0.0 | 0.00 | 0.00 | 0.00 | 98 | 1009.2 |
| 20260502233003 | 43 | 0 | 0.0 | 0.0 | 0.00 | 0.00 | 0.00 | 97 | 1009.1 |
| 20260502232003 | 43 | 0 | 0.0 | 0.0 | 0.00 | 0.00 | 0.00 | 97 | 1009.1 |
| 20260502231003 | 44 | 0 | 0.0 | 0.0 | 0.00 | 0.00 | 0.00 | 97 | 1009.2 |
| 20260502230004 | 44 | 0 | 0.0 | 0.0 | 0.00 | 0.00 | 0.00 | 97 | 1009.1 |
| 20260502225003 | 44 | 0 | 0.0 | 0.0 | 0.00 | 0.00 | 0.00 | 97 | 1008.8 |
| 20260502224003 | 44 | 0 | 0.0 | 0.0 | 0.00 | 0.00 | 0.00 | 97 | 1009.3 |
| 20260502223004 | 45 | 0 | 0.0 | 0.0 | 0.00 | 0.00 | 0.00 | 97 | 1008.9 |
| 20260502222003 | 46 | 0 | 0.0 | 0.0 | 0.00 | 0.00 | 0.00 | 97 | 1008.8 |
| 20260502221003 | 46 | 0 | 0.0 | 0.0 | 0.00 | 0.00 | 0.00 | 98 | 1008.8 |
| 20260502220022 | 46 | 0 | 0.0 | 0.0 | 0.00 | 0.00 | 0.00 | 97 | 1008.8 |
| 20260502214003 | 47 | 0 | 0.0 | 0.0 | 0.00 | 0.00 | 0.00 | 96 | 1008.9 |
| 20260502213003 | 48 | 0 | 0.0 | 0.0 | 0.00 | 0.00 | 0.00 | 96 | 1009.0 |
| 20260502212004 | 48 | 0 | 0.0 | 0.0 | 0.00 | 0.00 | 0.00 | 96 | 1009.2 |
| 20260502211003 | 48 | 0 | 0.0 | 0.0 | 0.00 | 0.00 | 0.00 | 96 | 1008.8 |
| 20260502210003 | 49 | 0 | 0.0 | 0.0 | 0.00 | 0.00 | 0.00 | 95 | 1009.0 |
| 20260502205003 | 48 | 0 | 0.0 | 0.0 | 0.00 | 0.00 | 0.00 | 94 | 1009.0 |
| 20260502204003 | 49 | 0 | 0.0 | 2.0 | 0.00 | 0.00 | 0.00 | 94 | 1009.3 |
| 20260502203003 | 49 | 0 | 0.0 | 4.0 | 0.00 | 0.00 | 0.00 | 93 | 1009.1 |
| 20260502202003 | 49 | 0 | 0.0 | 2.0 | 0.00 | 0.00 | 0.00 | 92 | 1009.0 |
| 20260502201003 | 50 | 0 | 0.0 | 2.0 | 0.00 | 0.00 | 0.00 | 89 | 1009.3 |
| 20260502200003 | 49 | 0 | 0.0 | 0.0 | 0.00 | 0.00 | 0.00 | 82 | 1009.1 |
| 20260502195003 | 49 | 0 | 0.0 | 0.0 | 0.00 | 0.00 | 0.00 | 81 | 1009.4 |
| 20260502194003 | 50 | 0 | 0.0 | 0.0 | 0.00 | 0.00 | 0.00 | 80 | 1009.2 |
| 20260502193003 | 50 | 0 | 0.0 | 2.0 | 0.00 | 0.00 | 0.00 | 79 | 1009.3 |
| 20260502192003 | 50 | 0 | 0.0 | 0.0 | 0.00 | 0.00 | 0.00 | 79 | 1009.2 |
| 20260502191003 | 51 | 0 | 0.0 | 0.0 | 0.00 | 0.00 | 0.00 | 77 | 1009.0 |
| 20260502190004 | 51 | 0 | 0.0 | 2.0 | 0.00 | 0.00 | 0.00 | 75 | 1009.1 |
| 20260502185003 | 51 | 27 | 2.0 | 4.0 | 0.00 | 0.00 | 0.00 | 74 | 1009.2 |
| 20260502184003 | 52 | 20 | 1.0 | 4.0 | 0.00 | 0.00 | 0.00 | 73 | 1009.0 |
| 20260502183003 | 52 | 40 | 1.0 | 4.0 | 0.00 | 0.00 | 0.00 | 73 | 1008.9 |
| 20260502182003 | 52 | 358 | 1.0 | 4.0 | 0.00 | 0.00 | 0.00 | 72 | 1008.7 |
| 20260502181003 | 52 | 360 | 1.0 | 4.0 | 0.00 | 0.00 | 0.00 | 73 | 1009.0 |
| 20260502164003 | 54 | 48 | 3.0 | 4.0 | 0.00 | 0.00 | 0.00 | 61 | 1009.5 |
| 20260502163003 | 55 | 48 | 2.0 | 4.0 | 0.00 | 0.00 | 0.00 | 61 | 1009.8 |
| 20260502162003 | 56 | 57 | 2.0 | 4.0 | 0.00 | 0.00 | 0.00 | 58 | 1009.7 |
| 20260502161003 | 56 | 36 | 2.0 | 6.0 | 0.00 | 0.00 | 0.00 | 55 | 1009.8 |
| 20260502152003 | 58 | 44 | 3.0 | 8.0 | 0.00 | 0.00 | 0.00 | 45 | 1009.6 |
| 20260502151003 | 60 | 48 | 4.0 | 8.0 | 0.00 | 0.00 | 0.00 | 41 | 1009.3 |
| 20260502123003 | 63 | 14 | 3.0 | 11.0 | 0.00 | 0.00 | 0.00 | 38 | 1010.5 |
| 20260502122003 | 62 | 26 | 2.0 | 9.0 | 0.00 | 0.00 | 0.00 | 38 | 1010.7 |
| 20260502121003 | 63 | 11 | 2.0 | 8.0 | 0.00 | 0.00 | 0.00 | 40 | 1010.5 |
| 20260502115003 | 62 | 321 | 1.0 | 7.0 | 0.00 | 0.00 | 0.00 | 38 | 1010.8 |
| 20260502114003 | 62 | 351 | 3.0 | 4.0 | 0.00 | 0.00 | 0.00 | 41 | 1010.7 |
| 20260502113004 | 62 | 322 | 2.0 | 8.0 | 0.00 | 0.00 | 0.00 | 39 | 1011.1 |
| 20260502112003 | 62 | 5 | 2.0 | 7.0 | 0.00 | 0.00 | 0.00 | 37 | 1011.0 |
| 20260502111007 | 62 | 359 | 3.0 | 7.0 | 0.00 | 0.00 | 0.00 | 36 | 1011.2 |
| 20260502110004 | 62 | 20 | 4.0 | 9.0 | 0.00 | 0.00 | 0.00 | 38 | 1011.3 |
| 20260502105003 | 63 | 19 | 4.0 | 9.0 | 0.00 | 0.00 | 0.00 | 36 | 1011.2 |
| 20260502104003 | 64 | 4 | 4.0 | 9.0 | 0.00 | 0.00 | 0.00 | 38 | 1011.4 |
| 20260502103003 | 64 | 8 | 4.0 | 11.0 | 0.00 | 0.00 | 0.00 | 35 | 1011.3 |
| 20260502102003 | 64 | 334 | 6.0 | 9.0 | 0.00 | 0.00 | 0.00 | 35 | 1011.3 |
| 20260502101003 | 64 | 332 | 5.0 | 9.0 | 0.00 | 0.00 | 0.00 | 34 | 1011.5 |
| 20260502091003 | 62 | 328 | 2.0 | 7.0 | 0.00 | 0.00 | 0.00 | 41 | 1011.7 |